GFSNIL_sfc_rhum_000.txt.gz
RH
60 63 61 64 71 84 80 83 90 91 88 87 88 89 87 89 90 93 95 93 91 91
69 64 61 64 78 82 82 84 91 89 87 86 86 90 88 90 90 92 92 91 89 87
67 65 66 76 80 78 82 88 89 86 80 80 77 78 83 90 91 92 88 82 80 78
66 70 72 77 78 81 84 78 69 68 71 73 76 78 82 82 78 75 75 71 70 71
73 70 71 74 72 70 63 62 63 62 63 64 67 70 71 71 68 69 69 69 72 72
64 67 73 73 80 80 78 70 67 62 58 63 68 66 64 66 68 71 73 75 76 76
81 75 82 94 94 87 81 72 70 69 70 73 64 59 61 65 72 70 67 71 72 73
87 90 95 94 93 89 88 84 87 83 67 65 59 53 74 69 68 71 74 74 70 70
91 85 87 89 91 91 91 89 94 79 68 68 57 76 67 73 80 78 75 77 72 73
70 74 81 85 90 86 76 71 66 65 70 74 75 72 71 70 79 83 83 82 82 77
71 68 67 64 63 66 63 61 64 70 79 80 69 70 68 69 81 86 86 83 82 84
67 67 67 68 66 64 64 66 75 80 80 78 78 72 71 72 91 92 91 82 82 85
69 73 74 68 67 65 71 74 76 74 78 78 90 80 75 75 90 96 94 90 80 77
74 75 67 69 71 75 80 82 91 93 92 88 86 90 78 73 86 94 93 92 88 88

GFSNIL_sfc_rhum_003.txt.gz
RH
55 50 50 50 52 54 55 57 64 59 55 60 62 64 65 67 71 73 78 87 90 91
57 55 55 57 57 58 62 60 65 67 64 62 60 62 61 64 64 73 77 80 82 83
55 54 55 56 61 62 65 67 62 55 53 52 54 55 59 61 62 64 66 62 66 65
58 54 54 58 61 61 63 55 52 52 55 60 65 68 66 64 57 51 52 55 56 56
53 48 56 60 62 66 63 59 54 54 63 66 60 59 55 53 48 45 44 44 48 47
58 53 60 71 72 70 68 64 66 71 69 61 54 50 46 47 48 48 50 52 55 54
70 70 76 75 74 73 68 63 68 65 70 65 48 42 42 43 51 52 49 53 51 50
77 76 83 66 61 59 61 65 70 75 68 52 46 36 50 51 52 53 53 54 51 53
58 54 55 60 64 62 56 49 50 50 50 52 44 79 67 69 57 57 55 55 52 51
63 54 49 46 44 46 49 48 47 48 51 56 57 70 69 69 53 55 56 55 52 48
56 46 47 48 48 48 46 48 48 54 57 54 47 66 68 68 62 66 63 57 55 55
49 49 51 49 48 48 48 49 52 50 52 52 54 66 68 70 74 74 71 61 58 59
51 51 49 49 48 48 48 49 52 54 54 63 72 70 73 71 72 81 73 69 65 70
48 50 50 47 48 47 47 64 79 83 79 75 70 73 73 70 78 80 77 74 69 70

GFSNIL_sfc_rhum_006.txt.gz
RH
40 41 38 39 40 41 42 44 50 50 48 48 49 50 54 63 66 61 64 66 74 79
47 45 46 46 45 42 47 44 51 53 49 44 47 49 52 59 67 66 67 63 60 62
45 44 46 46 48 49 50 52 48 46 45 47 51 60 64 66 68 68 65 60 55 42
46 45 45 46 49 50 52 47 44 45 49 54 68 79 82 73 61 48 45 43 41 39
46 44 46 50 51 54 56 54 54 62 71 70 69 60 54 55 45 41 39 40 40 38
48 48 52 56 58 63 67 67 70 64 62 64 62 55 47 40 39 40 41 40 39 38
51 61 65 68 60 56 52 50 48 46 46 48 42 38 36 35 39 41 38 43 45 44
48 46 44 44 43 42 40 34 34 35 36 38 36 30 48 39 42 43 44 46 43 45
45 42 41 40 39 36 35 34 36 37 38 41 31 72 70 64 48 43 41 42 41 40
46 40 38 33 30 34 38 40 41 41 42 45 44 63 65 68 48 45 46 46 44 39
42 38 33 33 34 37 38 40 41 43 44 45 39 61 66 67 56 54 52 48 46 44
40 38 33 34 37 38 40 41 42 44 46 47 47 63 66 67 66 63 59 49 46 52
39 37 34 38 40 40 39 41 45 54 55 60 63 64 68 67 68 81 76 72 65 70
38 34 36 38 39 40 41 52 76 88 75 66 65 63 64 66 78 82 79 71 68 65

GFSNIL_sfc_rhum_009.txt.gz
RH
39 39 38 40 41 42 41 42 44 47 47 47 55 57 56 56 60 63 66 74 79 78
42 43 44 45 45 42 45 40 44 46 46 53 53 62 63 67 71 68 70 72 69 66
42 43 43 43 45 45 45 46 46 52 54 59 67 66 70 65 62 66 65 57 54 54
42 42 41 41 42 50 59 51 56 60 62 63 64 69 75 67 62 64 63 55 49 45
37 37 38 42 51 57 52 55 56 58 60 62 66 69 67 67 59 50 49 48 48 46
36 39 44 46 47 48 48 45 45 44 46 43 42 38 37 35 38 41 42 42 42 40
41 41 42 44 43 40 36 35 32 32 32 34 32 31 31 33 39 38 35 38 40 39
39 38 39 40 37 36 34 31 30 32 33 34 33 30 46 44 46 45 43 44 37 41
38 44 43 38 36 32 32 32 34 35 36 38 28 70 64 61 49 45 43 43 41 38
42 47 40 34 28 30 33 35 37 37 36 39 41 60 62 67 52 51 48 47 46 41
42 44 37 32 30 32 34 36 37 39 41 44 40 69 69 68 56 54 52 48 48 50
42 45 37 32 33 34 35 37 38 40 48 54 55 66 70 66 63 65 61 51 51 54
36 39 37 34 36 35 34 36 43 51 54 63 62 70 62 66 70 79 71 64 57 65
40 38 34 34 34 34 36 48 68 84 71 62 64 62 61 67 73 75 84 74 72 70

GFSNIL_sfc_rhum_012.txt.gz
RH
59 58 58 62 60 63 63 64 63 64 64 68 74 74 73 75 76 76 79 83 81 90
59 62 63 61 63 64 65 53 62 67 68 73 77 75 74 77 76 76 83 86 89 87
56 57 58 60 62 66 65 61 63 68 71 72 75 77 77 86 83 80 79 76 78 78
54 54 56 58 64 64 67 64 59 61 58 59 65 80 86 84 82 74 72 70 68 66
51 50 54 58 59 61 62 63 58 56 55 56 58 63 70 72 66 66 66 63 63 62
49 52 54 55 58 58 59 56 52 46 48 46 49 47 48 47 54 56 53 52 54 52
52 51 53 55 55 55 52 49 47 47 48 50 43 39 48 48 56 58 53 56 55 53
49 49 53 58 54 54 52 45 46 46 49 50 44 40 61 57 59 60 58 57 51 51
48 49 56 61 58 53 50 47 49 51 52 55 35 70 66 70 71 62 62 63 58 55
65 61 60 54 48 45 50 53 56 56 54 58 61 70 70 72 68 67 64 64 62 56
62 58 50 52 49 51 50 55 56 59 60 64 53 69 71 75 75 72 69 67 62 62
58 49 55 52 51 52 53 57 59 59 67 71 70 71 74 83 83 80 75 65 68 68
64 56 58 57 52 52 53 53 70 75 76 74 77 74 73 79 90 89 80 77 72 69
84 71 70 54 50 52 56 68 89 91 88 80 77 77 65 79 88 87 86 83 80 78

GFSNIL_sfc_rhum_015.txt.gz
RH
65 68 70 64 66 69 77 79 74 75 77 82 83 85 84 81 87 81 88 89 93 94
65 64 63 60 70 81 78 58 71 77 79 79 80 82 84 93 93 92 93 94 91 92
58 59 61 74 73 72 71 71 74 75 74 74 75 79 88 93 93 93 91 81 88 86
57 63 67 70 70 66 70 67 69 68 70 68 72 76 84 87 87 89 85 83 70 65
58 57 62 64 63 65 62 67 67 60 56 58 58 62 62 64 69 69 70 69 67 64
55 56 61 54 62 60 64 58 54 52 56 57 60 56 61 64 68 69 68 67 66 62
71 64 59 61 60 56 55 51 51 52 54 58 56 57 60 59 69 70 65 70 69 65
71 65 71 75 69 74 58 50 49 51 55 58 54 53 72 72 76 76 74 74 64 62
77 76 79 81 83 67 56 49 51 56 59 65 49 74 69 72 82 75 74 75 65 68
79 80 82 74 73 53 52 54 56 63 65 68 72 74 70 74 81 82 80 77 74 65
76 82 79 83 69 53 53 54 64 71 75 77 64 74 77 85 93 88 84 80 73 72
78 81 82 78 56 52 54 70 75 79 80 82 83 78 79 84 92 91 88 77 73 70
90 93 91 96 81 60 61 76 83 83 85 82 89 72 64 90 97 96 90 84 75 72
79 86 85 82 64 61 74 87 93 89 89 83 80 80 65 70 86 86 91 85 81 82

GFSNIL_sfc_rhum_018.txt.gz
RH
69 66 61 59 65 76 80 76 74 79 81 83 82 85 88 92 93 91 95 95 95 95
70 62 62 67 79 81 76 65 72 79 80 81 80 84 88 93 92 93 94 94 93 89
63 67 69 79 78 74 72 72 74 70 73 73 73 76 82 89 88 93 92 81 82 78
61 67 76 74 73 72 74 71 64 69 63 59 59 63 69 71 75 72 73 74 73 73
63 63 67 70 71 75 66 64 67 60 53 57 58 61 63 69 70 71 72 73 75 72
62 62 66 67 71 68 68 67 62 55 54 54 59 61 65 67 71 72 72 74 76 75
75 79 78 71 78 84 86 82 67 55 55 60 60 62 63 65 73 74 71 77 78 77
80 76 77 83 88 89 83 82 61 54 59 63 62 57 74 72 75 77 78 77 75 68
78 80 82 86 89 91 89 59 51 59 66 68 53 74 71 75 84 79 78 82 74 73
80 84 88 89 90 86 84 66 64 67 66 75 73 74 76 82 84 88 89 86 82 74
82 85 86 90 90 88 70 65 67 77 81 78 70 80 80 78 93 94 91 86 83 80
85 88 92 96 97 94 79 72 83 82 80 89 89 68 67 89 96 89 87 77 76 71
86 91 93 94 94 92 71 80 80 80 86 74 83 67 62 68 98 96 87 82 72 73
74 79 82 84 78 74 87 86 93 86 87 83 79 80 63 65 84 89 92 85 82 82

GFSNIL_sfc_rhum_021.txt.gz
RH
68 70 69 68 75 80 83 78 76 80 86 86 86 88 90 93 94 93 95 93 95 97
74 74 74 74 78 85 80 70 73 79 81 77 82 79 84 93 91 93 94 94 89 85
71 75 77 78 82 83 79 74 72 70 75 73 66 67 73 77 79 86 81 77 78 77
69 69 76 83 81 80 75 72 70 71 74 61 63 63 67 68 75 71 74 76 75 77
67 69 72 78 77 80 80 75 73 69 65 61 61 62 65 68 70 72 73 75 77 77
75 81 79 80 77 76 77 82 80 80 72 63 63 63 66 69 70 72 75 76 78 78
81 80 78 77 77 82 89 86 83 86 67 67 64 63 64 66 72 76 74 77 79 78
77 79 82 83 87 92 91 87 90 75 64 67 62 58 70 72 76 79 81 80 77 75
83 86 87 91 92 93 88 74 82 63 69 69 55 73 74 84 91 83 83 91 82 78
82 83 86 90 93 94 91 90 75 72 74 77 78 78 80 77 88 91 94 87 85 73
83 86 87 93 95 90 86 81 79 84 78 83 79 70 65 82 91 90 86 75 77 78
83 91 92 94 94 97 96 80 87 81 86 84 77 66 63 71 94 88 83 75 74 71
79 83 91 92 93 91 77 82 80 76 83 71 83 68 63 67 97 97 89 83 76 76
77 79 78 83 82 81 88 84 91 84 89 82 78 79 66 66 92 91 90 87 83 84

GFSNIL_sfc_rhum_024.txt.gz
RH
70 74 74 73 77 81 85 85 77 81 87 86 85 87 89 92 93 90 93 91 93 96
79 80 82 81 83 86 87 75 75 74 76 76 78 87 84 93 88 85 89 92 88 80
73 72 75 82 84 86 85 78 72 73 77 80 82 75 75 76 76 84 88 80 78 76
70 71 75 83 86 83 80 76 80 80 82 81 68 69 71 71 72 81 76 76 75 77
70 78 78 77 79 81 82 83 84 76 75 75 77 70 66 72 70 74 72 74 76 75
78 80 79 79 80 80 84 85 85 81 81 81 72 68 70 71 70 70 75 77 78 77
77 79 81 83 83 86 88 92 88 86 87 72 66 66 66 66 73 77 76 78 79 81
82 84 87 87 89 92 94 93 82 72 65 69 64 59 71 76 86 88 86 84 81 81
81 81 84 88 92 94 95 80 86 74 75 78 62 78 80 84 92 87 85 86 77 74
80 84 87 90 94 95 92 89 87 80 80 81 88 75 67 75 80 80 80 76 74 69
83 88 90 92 93 94 89 89 84 85 82 85 73 65 64 66 86 87 80 74 75 74
84 87 87 89 92 93 95 88 84 80 83 77 73 65 64 69 85 85 82 73 73 70
82 82 84 85 88 92 83 84 80 74 80 71 80 67 64 69 93 96 89 84 74 75
79 81 82 78 82 83 90 84 91 86 87 80 76 79 67 69 93 92 92 88 81 80

GFSNIL_sfc_rhum_027.txt.gz
RH
58 54 54 57 56 57 58 59 62 61 61 62 62 61 63 62 61 64 57 57 54 55
57 58 56 58 61 61 65 59 64 61 59 59 62 62 64 60 60 57 55 56 58 57
54 51 53 58 60 62 62 62 62 60 60 60 64 62 58 53 50 56 53 52 58 52
47 51 52 54 56 57 60 52 58 61 62 62 60 56 62 57 52 54 54 56 55 54
48 50 49 51 52 55 55 58 62 63 60 61 63 61 62 53 52 54 55 52 54 55
48 50 52 53 54 53 59 65 67 65 68 72 72 53 52 54 54 52 54 57 58 58
56 57 56 57 56 61 66 71 72 73 63 65 51 51 52 52 56 60 60 61 59 57
60 60 59 59 63 67 72 71 68 66 60 56 52 48 59 61 60 58 54 52 48 49
63 59 59 65 69 70 71 67 67 69 64 60 54 80 70 65 55 52 48 47 46 45
62 60 64 63 61 62 73 71 67 63 60 62 62 66 64 65 53 50 49 48 48 47
60 62 61 62 59 61 69 68 69 64 61 60 52 64 63 65 52 53 51 49 51 50
61 61 62 59 60 62 67 70 65 61 60 54 51 62 62 62 63 63 59 55 52 53
60 62 60 64 61 59 65 63 59 58 58 63 61 63 63 64 69 80 68 61 52 59
61 62 60 60 56 56 59 66 73 74 68 61 63 61 64 68 76 72 70 63 56 54

GFSNIL_sfc_rhum_030.txt.gz
RH
35 33 33 38 40 36 33 35 43 48 46 45 46 46 47 49 51 53 52 50 45 38
40 42 39 34 35 35 39 33 36 41 42 42 43 45 50 50 53 52 52 51 48 44
38 32 31 34 35 35 34 34 35 36 36 40 43 45 53 52 48 54 51 40 44 44
31 31 31 32 33 35 38 36 36 39 42 42 43 46 49 53 52 47 48 45 47 47
28 28 30 32 34 38 40 40 41 45 45 44 46 51 58 54 44 48 47 45 45 45
28 30 32 34 38 40 41 42 46 45 52 55 54 54 46 45 50 48 46 48 49 47
32 34 37 40 41 43 44 47 46 47 51 53 46 46 44 44 46 48 45 47 46 44
34 40 41 44 44 46 49 48 46 50 55 56 49 40 51 47 47 45 44 42 37 38
38 41 43 45 47 46 46 46 47 52 50 52 40 75 65 62 44 43 39 38 36 37
42 43 42 40 41 43 47 50 52 53 53 53 53 63 61 63 43 41 40 40 39 37
41 41 39 42 44 46 46 49 52 52 52 53 48 62 61 63 46 46 45 44 43 43
39 41 41 43 47 49 46 48 51 50 52 53 48 62 60 61 53 53 52 45 44 44
40 42 43 49 51 48 46 45 45 49 53 60 54 64 61 60 62 77 61 50 45 50
39 42 44 49 48 47 46 51 60 66 58 56 58 57 63 63 74 69 64 56 51 48

GFSNIL_sfc_rhum_033.txt.gz
RH
30 30 30 32 33 30 31 32 36 36 36 38 38 38 41 48 53 54 58 61 54 46
34 36 33 31 32 31 34 27 30 34 34 34 35 37 40 45 54 54 57 59 54 56
41 33 28 31 32 32 32 32 34 35 34 37 38 38 40 42 49 55 63 55 52 50
33 29 30 30 30 30 34 34 33 34 37 38 37 37 46 49 54 52 51 47 52 55
29 26 28 29 29 32 35 35 34 36 37 37 40 48 53 51 46 50 51 52 52 49
26 27 29 28 31 34 36 35 36 38 39 41 44 47 48 47 49 50 50 49 49 40
26 30 29 30 34 37 36 38 39 40 40 44 42 42 44 45 45 49 45 40 40 40
28 30 31 35 38 39 39 39 40 39 42 48 48 40 50 46 45 41 39 39 35 36
28 28 33 37 40 39 38 38 40 41 44 46 40 76 65 60 47 43 38 39 38 37
28 32 35 33 33 35 40 42 43 44 46 53 51 67 62 61 47 44 42 42 42 38
31 33 33 34 35 39 41 44 44 47 49 54 49 68 62 62 51 45 45 45 44 42
29 32 34 35 37 39 44 45 45 43 51 51 54 68 63 60 52 51 50 46 43 44
29 33 35 38 40 42 44 42 40 42 46 57 52 68 64 60 61 68 60 50 45 58
32 34 34 38 41 44 44 47 57 65 59 57 60 59 67 63 66 67 64 59 52 49

GFSNIL_sfc_rhum_036.txt.gz
RH
50 50 46 54 52 50 51 55 52 51 54 54 55 58 61 68 70 71 77 76 82 81
50 51 56 52 47 51 50 39 52 54 54 54 56 60 62 65 68 71 78 82 83 80
53 50 51 44 47 46 47 46 50 53 52 54 57 58 62 68 67 75 82 74 76 74
51 51 45 46 46 44 46 47 48 48 51 52 54 60 66 69 67 67 69 68 69 71
48 47 46 44 43 46 47 49 48 49 49 51 53 58 60 68 63 64 66 66 68 66
46 42 42 43 43 44 47 49 50 48 54 54 56 55 57 60 62 63 63 65 65 62
44 43 41 41 44 48 49 50 51 53 54 57 55 54 54 53 60 63 57 59 56 55
42 39 42 46 48 52 54 50 52 54 57 56 54 48 62 58 61 63 60 59 50 50
39 37 43 48 53 55 55 51 53 55 57 58 44 77 70 64 64 61 60 62 58 55
37 38 46 44 44 47 53 57 59 61 60 61 68 76 68 64 60 66 68 63 63 54
36 40 42 46 47 52 54 59 62 63 63 64 62 78 70 65 65 69 66 65 63 63
36 42 47 46 49 54 56 60 62 57 62 67 76 79 74 66 71 74 73 64 64 60
42 45 44 52 53 55 56 55 57 59 65 69 80 78 71 68 90 87 88 77 66 66
53 46 45 49 52 56 59 65 75 76 75 72 76 81 72 70 83 92 92 87 83 84

GFSNIL_sfc_rhum_039.txt.gz
RH
52 56 63 61 59 58 59 56 51 56 56 57 58 62 64 70 72 76 88 80 79 85
60 61 61 57 54 58 53 46 54 54 52 54 58 60 62 76 78 81 84 85 83 85
58 56 59 53 49 50 49 49 52 51 53 55 58 63 71 75 75 79 84 80 80 80
61 67 48 48 50 49 51 48 51 49 52 53 58 62 66 70 69 74 75 74 75 72
57 49 48 49 48 50 49 51 48 51 52 56 60 58 63 68 68 68 71 71 70 70
54 48 49 48 51 51 52 54 50 51 57 60 61 58 61 60 67 68 67 70 70 67
53 46 46 49 45 55 54 53 51 55 59 65 61 56 58 58 69 67 63 64 64 61
54 53 51 50 53 58 55 50 53 57 62 64 61 54 67 61 65 64 64 66 59 58
59 54 53 54 54 56 56 55 57 58 61 64 50 78 72 67 66 62 64 68 68 62
54 50 51 47 48 50 52 56 59 61 65 67 72 80 75 70 63 64 68 73 71 62
55 50 55 54 55 55 59 60 66 66 65 68 73 82 78 73 68 69 74 74 71 71
54 53 56 58 60 60 53 63 66 64 64 70 78 84 80 71 71 74 76 74 72 73
58 57 62 71 62 59 61 60 64 64 71 71 85 84 79 73 90 87 89 82 76 66
61 65 64 61 61 60 64 68 78 83 81 76 84 87 80 76 84 87 90 90 90 87

GFSNIL_sfc_rhum_042.txt.gz
RH
68 72 74 64 61 64 64 62 58 59 56 56 60 62 68 72 80 86 88 82 86 90
65 58 60 61 65 62 60 54 59 55 56 56 57 64 72 78 80 83 86 89 90 92
64 64 66 68 64 58 58 57 55 52 52 52 57 70 71 74 73 76 85 82 80 81
76 75 62 64 62 61 58 55 56 58 52 52 60 66 67 71 72 74 75 75 75 73
60 51 56 57 54 58 54 58 60 56 54 56 62 63 64 70 70 70 72 72 71 72
51 51 57 59 58 60 59 59 56 55 55 59 66 63 66 67 69 72 70 70 63 64
57 54 56 56 58 59 61 59 55 56 60 65 67 64 63 60 71 72 63 64 62 62
63 60 61 64 64 66 62 56 57 60 61 65 66 60 67 66 71 68 66 66 60 62
64 55 59 61 62 62 59 57 56 55 65 66 59 70 77 74 71 64 65 65 66 67
58 61 64 57 58 55 54 53 56 66 67 70 71 77 81 77 68 66 68 68 71 66
60 60 63 66 63 69 61 63 66 68 71 73 68 83 82 79 69 71 69 73 73 74
64 67 70 82 82 71 70 67 70 70 74 75 75 85 85 80 73 72 74 71 74 75
75 82 81 76 78 76 74 70 68 68 73 77 79 86 86 80 83 83 85 83 79 72
78 75 72 76 74 71 71 74 81 83 85 85 84 86 87 84 84 83 84 86 89 85

GFSNIL_sfc_rhum_045.txt.gz
RH
88 81 78 77 78 72 64 64 63 65 69 67 59 62 64 72 82 80 85 82 89 92
92 85 81 74 74 72 64 60 71 77 66 62 59 60 69 82 78 83 86 88 89 93
82 69 70 73 71 63 66 75 71 64 66 64 63 69 77 77 76 79 86 84 81 82
75 70 66 65 65 65 66 63 65 74 64 62 63 74 74 74 75 76 78 75 76 76
72 65 64 62 63 61 66 67 73 69 62 59 64 71 70 71 70 75 77 75 76 74
73 68 70 68 63 72 74 71 67 63 60 60 67 69 70 73 76 77 76 76 76 65
73 78 77 71 66 66 65 63 58 58 60 64 65 68 69 69 74 78 77 75 67 65
71 67 66 66 70 71 65 60 58 58 64 67 69 66 72 69 76 80 77 73 66 68
67 64 70 70 70 65 60 52 62 74 65 68 62 71 77 78 82 76 74 75 70 65
65 66 68 68 69 70 81 86 83 69 69 71 74 79 79 83 82 80 77 73 70 68
71 73 72 73 83 90 89 82 75 74 75 78 73 80 83 86 84 79 75 72 71 78
72 75 84 90 94 88 80 79 79 76 80 81 81 80 83 90 85 78 76 71 77 74
80 92 95 91 79 80 81 80 80 76 78 79 84 81 84 90 93 87 81 82 78 79
84 79 77 79 80 77 79 82 86 86 87 85 86 87 83 89 91 88 88 85 84 80

GFSNIL_sfc_rhum_048.txt.gz
RH
93 95 94 90 81 79 76 72 67 78 73 85 78 68 72 71 78 83 84 86 90 88
97 97 94 94 87 78 73 69 74 91 86 70 67 75 68 74 77 83 86 86 87 90
96 95 94 91 85 78 74 75 87 84 70 71 77 68 71 76 77 82 86 86 87 89
96 92 90 87 85 80 74 84 82 68 75 76 68 68 76 80 75 81 82 83 85 83
91 88 89 90 82 81 79 70 73 85 74 65 61 71 78 73 72 80 81 81 81 82
89 87 86 81 75 71 74 77 71 69 65 63 68 69 75 75 75 79 79 79 82 80
92 83 78 74 72 72 71 70 72 69 64 69 76 70 74 72 78 81 80 83 84 80
87 77 75 74 74 78 73 66 63 71 86 80 71 64 75 75 79 81 83 86 79 75
70 70 73 71 68 67 66 69 86 90 90 84 68 73 79 82 85 83 85 84 79 73
70 68 68 66 69 72 85 94 94 93 86 78 77 78 80 84 90 88 84 81 77 70
70 73 76 82 89 94 95 96 95 85 80 80 75 81 84 85 88 90 86 82 77 73
77 81 86 89 95 97 96 90 84 80 82 84 82 81 82 86 92 92 85 76 75 72
88 96 96 96 93 86 83 83 83 81 81 82 85 81 82 86 96 95 89 83 77 78
76 76 79 81 82 81 83 85 87 87 87 86 86 84 82 84 96 94 91 88 86 82

GFSNIL_sfc_rhum_051.txt.gz
RH
80 82 81 85 83 77 76 70 68 64 69 71 71 72 71 68 65 71 66 63 63 50
83 85 85 86 88 87 82 68 71 68 65 78 71 68 81 77 63 68 72 65 62 55
82 83 85 89 90 85 77 75 72 66 74 69 73 81 76 69 67 69 64 57 61 58
89 88 89 92 89 85 80 74 74 77 66 76 92 80 67 70 70 62 60 60 60 58
91 92 94 93 89 82 76 73 78 76 75 84 71 68 74 70 54 57 59 59 60 60
89 86 88 85 80 73 73 75 75 79 81 66 65 66 62 58 58 61 60 58 59 58
86 82 79 77 73 72 69 66 67 66 80 76 66 58 58 58 60 60 58 59 60 58
78 72 69 68 76 79 76 65 69 65 78 76 71 68 68 61 61 59 59 61 59 61
72 66 72 70 65 60 79 65 82 86 82 87 84 82 84 76 60 56 58 57 56 58
64 65 67 70 76 74 85 88 92 95 96 91 79 82 82 83 59 61 59 59 57 55
72 78 77 80 91 94 93 93 93 82 77 71 60 79 84 87 60 57 57 59 59 60
79 82 88 92 93 92 80 74 70 65 64 64 61 80 83 78 60 60 59 56 57 59
79 78 82 80 67 64 62 60 58 58 61 67 63 73 82 76 70 75 69 60 59 78
61 60 59 60 60 60 58 62 68 70 65 64 66 64 79 82 74 78 76 69 64 64

GFSNIL_sfc_rhum_054.txt.gz
RH
70 69 66 66 70 72 77 90 74 73 62 73 66 63 55 66 66 62 74 58 58 39
76 76 75 73 75 76 81 89 88 83 84 66 57 63 76 82 85 77 62 60 54 44
74 74 73 81 82 83 91 87 87 93 83 65 73 76 78 76 80 78 86 58 50 47
67 69 75 88 88 88 87 82 85 77 77 77 81 87 88 82 71 78 67 51 48 48
76 81 90 93 90 89 84 82 72 75 76 72 84 87 74 80 76 68 51 48 47 46
88 91 93 92 89 84 78 74 77 76 69 76 84 70 86 83 70 55 50 50 46 44
89 88 86 83 81 78 78 77 77 76 78 75 80 87 82 70 62 58 51 50 50 46
77 71 70 70 66 69 71 69 66 74 79 85 82 68 71 72 74 65 54 51 45 46
65 63 64 62 63 68 64 62 65 78 86 83 73 87 92 86 62 52 48 47 44 42
56 59 59 58 60 66 67 78 83 86 86 85 85 91 90 86 52 47 47 47 45 40
57 58 62 71 80 84 90 86 86 82 66 60 50 77 80 85 54 48 45 44 43 44
61 65 69 67 70 73 64 56 52 48 49 48 46 74 81 75 50 46 46 41 41 41
58 64 63 57 53 50 45 43 40 41 43 52 48 65 79 72 64 66 62 55 49 60
49 48 46 45 44 44 43 48 58 60 57 52 53 52 72 78 63 62 66 66 62 61

GFSNIL_sfc_rhum_057.txt.gz
RH
56 60 62 59 58 64 67 78 73 89 88 93 90 82 86 84 61 65 70 73 69 64
74 66 69 70 73 73 75 75 79 92 90 91 93 89 85 81 82 84 74 74 88 74
69 75 75 78 82 80 82 78 86 89 88 94 89 83 78 85 82 87 93 88 78 74
79 74 74 86 86 85 82 82 85 87 92 89 87 85 92 86 86 88 90 75 72 66
77 85 87 90 92 92 90 86 86 86 85 80 89 90 83 81 80 85 77 72 70 60
87 91 93 93 91 88 87 87 85 82 82 81 83 80 76 77 83 82 77 70 60 59
91 91 90 87 84 83 80 81 82 80 78 86 86 77 80 83 87 79 70 70 65 57
84 79 78 77 77 80 78 76 72 77 76 78 81 82 90 84 78 81 76 76 61 50
66 63 65 66 68 67 67 67 71 77 84 91 77 87 89 87 82 68 54 49 44 42
56 58 59 55 55 57 63 65 70 81 75 76 75 87 91 95 62 51 48 46 45 39
54 54 56 58 62 67 68 71 72 70 70 70 53 84 81 82 51 46 43 41 41 44
58 61 60 62 64 65 68 64 54 45 44 43 41 75 81 69 54 54 54 46 45 45
54 56 57 58 54 48 43 39 35 36 39 57 45 79 75 62 54 60 56 50 45 57
48 47 46 44 40 38 38 42 54 52 49 40 47 48 70 74 58 64 71 65 61 57

GFSNIL_sfc_rhum_060.txt.gz
RH
66 68 77 87 79 84 85 89 88 90 92 92 95 96 94 94 97 97 95 77 81 81
78 76 72 78 76 87 89 91 92 92 94 96 94 94 96 98 95 87 92 94 92 91
73 78 77 86 88 94 92 93 92 95 96 95 95 96 96 93 92 91 96 94 91 90
77 80 93 92 94 93 94 92 93 93 94 95 96 94 94 93 89 89 90 90 91 85
92 91 95 97 98 94 94 93 91 93 93 93 93 94 90 87 84 86 89 86 80 78
94 95 97 97 95 92 93 94 94 93 92 92 92 90 87 83 86 86 83 81 82 80
96 95 94 93 92 93 90 90 88 87 87 89 88 85 84 83 88 90 86 82 80 76
91 90 89 87 86 86 86 84 83 86 88 87 85 80 86 87 93 87 85 81 76 78
84 80 83 82 82 81 79 78 81 86 87 89 83 96 95 86 85 79 78 78 65 61
71 74 75 70 71 74 79 82 85 89 88 88 85 90 91 92 88 76 69 68 65 54
65 64 64 66 72 76 78 84 85 85 84 82 70 89 86 81 70 68 68 67 63 60
63 67 66 72 77 79 76 79 78 72 66 65 75 75 73 65 74 64 68 55 60 61
63 64 67 69 71 70 67 54 48 49 63 64 69 78 79 65 82 83 84 74 61 68
58 60 60 61 58 54 55 66 75 73 64 63 66 78 70 68 81 84 78 74 72 71

GFSNIL_sfc_rhum_063.txt.gz
RH
61 74 75 78 86 85 92 94 95 96 97 97 96 98 98 97 96 95 97 95 92 91
69 75 79 77 89 93 94 96 96 96 98 98 97 96 95 97 99 98 95 94 93 91
77 74 78 95 97 97 99 98 98 98 96 97 96 97 97 98 97 93 95 94 92 90
76 83 96 94 97 96 98 96 96 96 97 98 98 97 97 95 92 92 93 92 88 87
96 98 98 99 99 97 97 97 96 96 97 96 97 95 93 91 87 88 89 88 88 84
99 99 99 99 98 97 96 96 95 94 95 96 94 92 92 91 90 88 87 85 85 84
98 98 97 97 95 95 94 95 95 93 93 94 93 90 88 87 88 87 86 88 87 83
96 94 93 93 93 91 90 89 89 91 94 93 90 85 87 84 89 93 90 86 81 88
93 91 90 89 89 88 87 86 90 93 93 91 84 93 92 93 91 84 83 93 76 71
85 86 86 82 81 84 87 90 94 96 94 93 90 94 95 92 92 93 78 78 77 63
81 80 79 78 86 93 92 93 94 94 94 92 84 94 93 91 80 81 73 72 73 76
76 77 80 83 81 84 86 92 95 91 79 74 73 76 76 72 78 76 81 69 72 67
73 76 78 80 78 82 89 85 67 72 76 76 81 78 77 76 90 82 82 77 71 72
73 72 72 82 80 76 73 71 78 76 79 82 80 77 72 70 83 89 88 84 82 81

GFSNIL_sfc_rhum_066.txt.gz
RH
69 74 72 75 76 83 82 83 89 94 96 97 98 99 98 98 98 98 98 97 98 97
73 73 70 76 87 88 92 98 98 97 98 98 99 98 98 98 99 97 98 99 97 93
65 73 86 93 94 96 98 97 98 98 98 99 98 98 97 98 98 98 98 95 91 90
71 83 92 96 98 98 99 98 98 98 98 98 98 98 98 98 97 94 92 92 89 89
96 96 97 97 98 99 98 98 98 98 98 97 98 98 97 96 92 91 92 90 90 90
94 94 96 96 96 93 98 99 98 97 98 98 98 96 94 91 90 91 92 89 88 84
95 92 88 99 99 98 97 98 98 97 97 96 95 93 91 91 91 89 88 88 87 89
99 98 98 98 98 98 96 96 95 96 96 95 93 91 90 87 88 89 92 91 83 84
98 96 97 97 96 95 94 93 95 97 96 96 88 96 93 87 92 88 84 89 75 74
94 95 95 91 92 91 93 94 96 96 93 92 91 92 93 93 88 88 80 79 75 61
91 92 88 87 89 93 92 93 94 94 94 94 87 96 98 91 84 81 82 80 74 74
85 86 86 90 90 90 91 94 95 93 89 88 87 88 82 76 82 77 73 70 71 76
82 86 86 87 90 88 89 92 92 80 74 75 77 83 79 75 82 78 76 76 71 69
81 82 82 83 90 94 84 85 86 84 84 82 82 80 72 69 78 83 84 81 82 82

GFSNIL_sfc_rhum_069.txt.gz
RH
69 72 79 87 84 88 82 82 85 95 92 94 96 98 98 98 98 98 97 98 97 97
74 74 75 84 86 85 90 89 93 96 96 97 98 98 98 99 99 99 98 98 98 98
73 79 83 84 93 94 93 95 94 98 99 99 98 99 99 99 99 99 99 99 97 94
76 78 84 82 89 96 98 97 96 98 98 98 98 99 99 99 99 98 98 96 93 89
75 78 80 84 95 96 95 96 98 98 98 99 98 98 98 99 98 96 96 93 91 91
75 76 78 88 91 94 94 93 97 97 98 98 98 98 98 97 96 94 90 91 92 93
79 83 86 94 96 96 97 99 99 98 98 98 98 97 96 94 94 92 92 91 90 88
84 85 93 96 98 99 99 98 98 98 99 98 97 95 94 92 93 93 93 91 89 86
98 98 97 98 99 98 98 98 98 98 98 98 95 99 95 90 89 88 91 90 76 73
98 98 99 98 98 98 98 98 98 98 98 97 96 96 94 93 90 88 82 72 70 58
98 98 97 97 97 98 98 98 98 98 96 94 92 96 96 89 76 76 75 70 73 72
95 96 95 96 97 96 97 98 96 94 93 94 97 94 86 76 75 69 70 71 74 74
90 91 93 94 94 93 92 94 91 87 89 92 89 86 82 75 78 76 77 73 68 69
87 88 88 90 91 91 94 88 89 87 83 81 80 79 74 69 76 77 78 76 77 77

GFSNIL_sfc_rhum_072.txt.gz
RH
82 80 80 86 84 90 85 89 87 93 95 96 96 97 98 99 98 98 98 98 95 94
85 84 82 89 93 93 94 91 91 92 94 96 97 98 98 99 99 99 98 98 97 97
83 84 82 88 88 91 91 93 93 93 96 97 98 98 98 97 98 98 99 99 99 98
83 82 83 83 86 92 92 92 91 91 94 95 96 98 99 99 99 99 99 99 97 95
80 79 82 82 81 83 90 92 89 92 93 96 97 99 99 99 98 98 99 98 96 94
79 77 76 78 80 86 87 90 92 95 98 98 98 99 99 98 98 98 98 95 93 92
78 75 77 84 88 90 91 93 94 97 98 99 99 99 99 98 98 98 96 94 92 91
75 73 82 92 92 92 92 92 94 98 99 99 99 98 98 98 98 97 97 96 91 92
78 78 84 92 92 93 96 97 98 99 98 99 99 100 99 96 96 94 94 90 85 82
83 85 90 94 98 98 98 99 99 99 98 98 99 100 98 97 92 95 88 84 74 67
92 96 99 99 99 99 99 99 98 99 98 98 97 99 97 93 87 87 81 76 70 76
97 98 98 99 99 98 98 98 98 98 98 98 98 95 92 82 75 72 69 68 68 66
97 98 98 98 98 97 96 98 97 98 97 97 97 93 86 75 74 73 72 67 65 72
95 96 94 96 96 96 95 94 96 96 94 92 91 90 83 76 72 73 72 66 70 75

GFSNIL_sfc_rhum_075.txt.gz
RH
68 64 63 64 62 68 64 66 68 74 72 73 74 77 80 83 84 86 89 86 88 88
73 71 67 68 70 70 70 71 70 71 71 71 72 74 79 84 84 88 90 94 92 95
71 72 71 72 74 74 72 70 68 69 68 66 70 75 80 85 84 93 98 96 96 95
74 74 74 75 75 73 73 71 76 76 76 75 77 83 90 91 90 96 96 96 93 97
77 75 78 76 74 73 71 71 70 69 70 76 90 96 96 96 95 98 98 98 98 98
79 77 75 72 70 68 70 72 72 72 79 78 80 88 92 97 98 98 97 97 98 98
78 77 75 72 72 74 72 74 74 76 75 80 83 92 95 96 98 98 97 97 97 96
75 74 71 72 72 72 73 72 70 78 92 95 96 98 98 96 97 97 97 97 95 95
70 70 74 74 76 74 76 74 75 80 89 97 98 100 100 99 98 97 97 98 97 96
67 68 71 69 71 76 80 84 89 90 95 97 97 100 100 100 97 97 94 93 88 82
69 69 67 72 76 84 90 94 98 98 98 98 99 100 100 99 95 93 91 87 85 86
71 73 87 91 96 98 98 99 98 98 99 98 98 99 97 92 90 88 87 85 79 71
82 97 98 98 98 98 98 99 99 99 98 99 98 95 93 89 88 89 84 75 75 76
91 96 96 98 98 98 97 97 98 98 97 96 95 95 91 89 88 85 77 71 70 73

GFSNIL_sfc_rhum_078.txt.gz
RH
71 71 70 67 58 62 67 64 70 75 71 69 62 59 62 67 66 66 68 71 68 66
65 66 61 64 63 60 60 54 66 63 62 60 58 56 60 64 63 63 68 70 71 74
59 60 58 60 63 63 61 57 58 60 59 57 56 56 56 57 57 60 68 79 84 83
58 60 61 62 63 61 61 57 55 55 55 54 53 52 56 58 57 61 72 85 85 92
61 57 64 66 65 66 62 58 54 53 51 51 52 53 56 61 74 86 88 89 96 94
66 62 60 60 60 58 57 55 53 52 54 52 54 52 56 72 84 81 69 84 96 95
64 64 61 58 57 58 55 54 53 55 56 57 54 54 65 70 79 76 80 88 96 95
60 58 58 60 59 58 58 54 53 60 59 60 59 61 73 78 79 84 87 94 95 94
56 57 58 58 61 60 61 58 57 58 61 64 61 91 100 88 84 91 94 97 98 98
57 58 59 56 57 60 61 63 63 64 62 62 62 100 100 100 85 93 95 96 98 97
56 57 56 58 59 61 62 66 68 67 63 63 71 100 100 100 98 99 97 96 94 92
53 55 56 58 62 61 66 72 72 81 86 94 99 100 100 99 97 96 95 92 91 89
51 55 58 60 63 84 83 93 98 99 99 100 99 99 98 94 93 95 95 91 95 94
55 64 72 82 90 96 97 98 98 98 98 97 97 97 95 93 92 92 91 91 93 94

GFSNIL_sfc_rhum_081.txt.gz
RH
71 71 67 75 73 72 71 68 69 73 68 71 74 67 67 75 70 77 79 79 74 66
68 70 69 67 67 67 66 60 63 68 66 66 65 68 65 71 69 70 76 81 75 70
66 68 65 70 70 67 63 58 56 61 64 65 63 59 60 60 62 67 72 72 73 70
63 65 66 65 69 67 66 62 57 59 62 60 59 59 60 61 60 63 66 68 69 72
59 59 65 65 64 67 65 62 58 57 58 57 55 58 60 61 58 60 61 61 68 77
61 58 59 61 61 62 62 60 58 55 56 55 56 56 57 57 58 59 59 62 68 82
60 59 57 58 59 61 60 60 58 58 56 56 53 52 52 52 57 59 59 69 74 76
57 56 55 57 57 58 60 58 56 57 57 57 56 52 56 54 57 58 68 74 77 86
52 55 58 58 59 59 59 57 56 57 57 59 53 69 79 71 59 64 70 85 90 94
50 54 57 55 55 58 61 61 61 60 57 58 59 81 86 88 70 82 78 87 89 97
50 51 52 54 56 60 62 65 64 64 62 61 58 85 92 100 88 86 83 93 92 94
46 50 51 55 59 59 61 65 67 64 66 65 64 100 100 99 99 100 99 98 97 96
44 49 54 56 58 59 63 67 71 77 93 99 90 100 100 100 99 99 98 98 98 95
44 51 51 54 57 62 78 94 97 97 97 97 98 99 98 97 98 97 97 97 97 98

GFSNIL_sfc_rhum_087.txt.gz
RH
75 73 73 68 66 69 72 69 83 86 83 80 87 89 85 87 92 93 95 92 94 90
80 77 73 72 66 64 67 65 77 80 83 86 82 85 89 92 86 88 89 88 89 88
80 77 77 75 71 70 67 66 67 82 75 78 78 76 81 84 85 83 84 87 86 85
83 77 80 78 74 73 72 69 65 74 77 74 72 73 75 73 75 80 77 81 85 82
76 81 80 80 78 74 75 70 68 72 72 73 71 71 74 74 67 76 80 78 85 84
74 76 83 78 76 76 72 72 70 68 72 69 69 70 71 71 74 72 73 75 86 83
77 74 76 81 77 77 76 73 71 68 68 67 65 64 67 69 74 74 71 72 74 77
80 78 77 75 79 80 79 77 73 70 68 64 61 57 63 65 69 72 73 71 71 74
79 79 80 79 79 79 80 83 77 75 73 70 61 70 80 70 67 66 68 74 75 76
70 75 76 77 78 79 80 79 85 83 78 78 75 84 85 87 70 73 73 75 76 79
60 70 74 73 74 78 81 80 80 82 82 81 77 89 87 89 79 75 75 79 81 82
70 68 69 74 76 74 76 80 81 80 80 81 79 91 92 92 82 80 79 93 98 95
88 83 75 74 72 76 76 74 74 80 84 89 83 100 98 93 85 89 100 99 99 99
86 89 94 92 81 83 84 86 90 97 99 98 99 99 100 100 97 97 99 99 98 99

GFSNIL_sfc_rhum_090.txt.gz
RH
80 85 85 77 80 83 79 76 75 81 78 82 78 77 81 84 88 91 93 90 88 91
80 82 83 75 73 78 75 71 81 88 80 85 88 88 86 90 92 94 94 95 94 88
81 75 76 76 78 78 74 71 75 87 84 83 85 86 92 85 90 93 92 90 94 91
84 78 77 82 78 75 74 77 76 76 82 83 81 83 85 86 88 88 83 86 89 84
83 81 81 82 80 76 74 74 72 73 78 78 80 78 81 80 76 88 87 86 88 83
86 84 82 81 82 78 77 74 71 69 74 74 77 76 76 75 76 76 77 77 80 79
84 85 82 80 81 82 79 78 75 70 71 72 70 72 72 73 75 76 74 76 74 76
81 77 79 86 81 81 83 79 77 76 73 73 72 68 72 71 73 75 77 77 77 79
82 82 79 78 86 85 84 84 80 77 78 77 71 77 81 73 70 69 72 75 75 76
85 87 84 82 83 86 90 86 88 86 82 81 77 85 84 82 66 68 70 72 72 73
84 85 86 87 87 86 85 87 87 87 84 83 77 88 88 86 72 68 68 71 73 76
88 89 93 88 88 85 84 87 88 86 88 85 82 94 95 93 82 78 76 74 79 82
84 88 94 96 97 86 84 86 89 88 86 89 88 100 98 98 88 90 89 83 99 100
80 82 89 93 96 96 97 92 92 95 99 98 98 98 98 99 93 92 94 96 100 99

GFSNIL_sfc_rhum_093.txt.gz
RH
81 90 91 91 87 87 88 88 92 91 87 84 86 89 89 91 89 91 91 86 84 83
84 84 91 90 84 90 88 80 84 84 84 85 86 88 90 91 88 91 91 91 90 90
91 85 88 88 87 93 91 85 86 88 83 80 84 88 91 90 85 84 90 90 92 92
91 88 88 88 86 89 88 86 84 83 84 83 82 88 90 80 81 83 80 91 93 85
91 86 86 88 86 84 85 85 81 83 82 82 83 84 86 88 86 89 86 90 92 89
94 92 86 85 88 84 80 82 80 81 83 83 82 87 88 85 84 89 88 87 90 85
94 93 90 87 87 87 82 80 79 78 79 80 81 81 85 85 86 85 85 85 85 84
94 94 93 91 89 88 86 82 80 78 77 78 77 75 78 77 79 82 82 82 81 82
93 94 92 94 91 91 89 86 84 84 81 79 73 79 84 78 76 74 78 80 81 80
90 90 90 87 89 92 91 90 90 88 85 84 80 86 87 87 72 75 77 78 76 77
85 88 89 90 89 89 90 93 92 91 89 88 83 91 90 90 80 76 75 76 77 79
83 87 89 93 95 90 89 90 91 90 92 93 89 100 95 94 84 82 80 75 75 77
79 82 88 92 94 95 96 95 89 89 90 98 96 98 99 99 91 92 89 84 82 86
76 77 82 86 88 92 95 97 97 96 96 96 95 95 95 97 99 98 96 96 98 98

GFSNIL_sfc_rhum_096.txt.gz
RH
95 96 88 97 91 93 94 95 97 96 94 93 92 93 93 89 88 96 95 89 82 86
95 96 96 96 96 89 91 90 92 92 91 87 86 90 91 89 87 90 91 89 87 77
95 94 96 95 97 96 89 86 90 90 92 92 87 89 91 91 87 88 86 85 86 86
96 94 95 95 96 96 94 93 90 88 86 88 90 89 91 89 91 90 89 87 87 86
96 96 96 96 95 95 95 93 92 92 91 85 84 89 90 91 88 90 88 88 88 82
91 96 96 96 95 92 94 94 92 92 90 89 85 85 90 92 90 89 86 83 85 82
91 93 96 95 95 92 89 91 93 91 90 88 87 84 87 86 88 89 89 87 84 81
89 89 95 95 95 93 90 86 85 86 88 88 87 85 87 89 89 89 89 88 88 87
93 92 93 92 95 95 94 92 89 87 86 87 81 87 91 88 87 88 91 91 90 87
90 94 94 94 93 94 95 94 94 92 89 87 84 88 89 90 80 81 82 82 81 80
84 86 87 91 93 94 94 94 93 92 90 89 84 93 91 92 82 78 78 79 80 80
80 83 86 90 94 93 94 96 96 95 95 95 94 98 99 98 90 89 89 82 80 80
77 81 85 87 90 91 91 94 92 94 94 95 95 96 96 96 98 96 95 91 91 100
83 82 86 87 88 89 90 92 95 94 95 94 97 96 95 96 97 100 99 98 98 98

GFSNIL_sfc_rhum_099.txt.gz
RH
76 73 73 74 70 81 87 87 93 87 96 93 89 89 93 94 91 88 89 88 91 87
78 77 74 76 79 82 87 88 95 94 95 94 90 91 92 92 88 88 92 91 91 86
77 76 75 77 82 83 87 88 91 90 91 92 93 92 93 92 86 88 91 94 92 85
79 79 79 79 79 78 84 88 89 90 87 86 87 89 89 86 82 79 76 78 79 80
81 79 81 81 81 80 79 85 82 86 87 88 84 83 83 90 82 78 78 79 85 85
85 83 79 79 79 79 77 76 76 79 87 89 89 87 87 87 88 89 86 86 89 84
83 81 80 79 79 80 78 76 75 75 76 79 79 82 87 88 87 86 82 80 81 83
83 84 84 82 80 79 79 75 72 75 74 74 72 71 77 80 86 86 83 76 71 73
91 87 91 88 83 82 80 75 74 75 76 77 69 87 93 82 76 76 73 72 70 70
89 92 93 92 90 89 85 82 81 78 74 75 73 91 94 95 70 71 74 75 74 71
82 85 86 88 92 95 94 94 92 90 87 83 86 98 96 95 87 83 83 82 79 78
79 82 84 89 92 92 93 93 97 94 95 94 93 96 96 97 91 89 88 86 87 92
78 82 85 87 88 88 89 90 88 89 92 95 92 95 96 95 95 99 99 97 93 97
76 80 84 83 82 84 88 89 91 92 92 92 94 93 93 96 97 99 97 95 95 95

GFSNIL_sfc_rhum_102.txt.gz
RH
66 58 56 59 51 55 58 64 69 76 82 86 88 92 95 95 95 90 92 87 85 81
65 61 58 59 59 61 68 70 82 84 96 92 88 86 92 90 91 91 93 93 90 86
64 62 60 62 66 67 72 75 83 92 86 92 91 92 92 94 93 95 95 93 92 89
65 63 62 62 66 66 71 77 80 81 80 91 94 94 96 94 92 93 93 94 95 93
67 63 64 64 67 68 69 73 77 80 74 78 80 85 87 89 83 87 87 87 86 78
73 66 62 62 64 66 68 67 71 71 78 78 74 78 80 79 76 78 76 74 71 66
75 66 61 61 65 67 66 68 69 69 71 75 75 73 73 74 79 70 66 68 68 76
74 70 68 70 68 67 68 67 65 68 69 72 72 70 76 75 78 77 79 79 74 71
83 84 83 76 75 75 72 66 66 67 69 70 64 85 92 81 74 75 74 75 76 76
87 89 93 93 88 79 76 73 70 68 66 69 76 96 96 94 66 70 71 71 71 71
82 84 86 87 91 94 94 96 93 93 90 92 86 96 96 99 90 86 80 78 86 92
85 86 88 90 92 92 91 92 93 91 91 91 91 95 96 93 93 92 92 93 92 90
83 83 84 87 90 89 87 88 86 89 91 94 91 94 95 93 93 99 96 94 93 96
69 76 79 79 80 83 86 86 90 91 92 90 92 92 91 92 93 94 94 94 95 96

GFSNIL_sfc_rhum_105.txt.gz
RH
54 51 50 54 48 48 58 63 64 73 78 82 87 93 92 94 95 93 93 85 89 78
60 55 52 54 51 49 52 61 67 65 67 89 87 90 94 94 95 96 96 94 90 92
60 56 54 56 55 55 62 64 68 71 74 78 86 90 92 94 92 94 95 96 95 93
67 59 56 57 57 65 73 65 67 71 88 94 95 94 92 89 91 93 92 93 94 95
70 62 59 58 60 66 74 65 65 68 80 80 84 89 93 96 94 95 96 94 94 94
75 69 62 57 64 71 67 69 64 64 73 73 76 83 89 88 88 87 84 85 89 88
85 77 64 53 66 74 71 68 69 67 72 77 72 72 71 72 76 76 72 75 76 78
89 80 66 61 69 72 73 72 69 72 74 75 77 68 72 70 78 74 71 76 68 70
85 76 77 73 75 76 74 70 73 73 74 74 64 93 95 86 69 68 70 69 66 62
89 91 93 85 79 76 80 76 74 75 75 85 81 96 97 97 73 80 75 75 78 76
88 90 90 90 93 94 93 94 92 93 89 87 84 96 97 98 80 82 90 92 90 92
90 89 90 92 94 93 92 93 93 91 91 91 92 96 97 94 92 95 93 90 92 90
90 91 92 92 94 94 94 96 90 91 92 94 92 94 94 93 95 96 94 93 93 95
82 88 87 90 93 95 98 99 100 97 97 96 96 95 95 94 93 96 96 94 95 96

GFSNIL_sfc_rhum_108.txt.gz
RH
65 66 64 66 69 72 75 80 81 86 91 91 91 95 94 95 96 94 94 91 90 86
68 68 64 69 69 69 73 71 79 81 87 91 91 91 93 94 95 96 95 95 92 91
68 66 68 70 73 72 74 73 81 81 81 89 91 94 94 96 95 97 98 97 98 97
72 73 74 71 72 77 79 79 82 81 82 94 93 94 96 96 95 96 96 97 97 98
82 78 80 77 76 80 81 79 78 82 90 89 94 94 97 97 94 95 96 94 95 94
86 88 83 74 76 79 79 78 78 80 84 88 91 94 95 94 95 94 94 93 95 94
93 88 85 79 78 83 80 80 79 78 80 84 83 85 88 91 93 93 92 91 90 90
94 90 86 84 83 85 83 80 80 83 84 85 83 80 86 85 90 88 88 87 83 86
95 93 92 87 86 89 85 83 83 82 86 89 73 96 97 95 85 83 84 88 86 80
92 93 95 93 90 92 91 88 90 90 87 85 84 96 96 98 84 95 94 93 91 88
89 92 92 92 94 95 94 95 94 92 88 88 88 96 97 97 90 92 91 92 92 94
92 91 92 94 94 93 94 94 93 92 92 92 94 96 97 96 93 92 93 90 92 90
95 94 96 98 99 94 94 95 92 94 94 92 94 96 95 92 92 95 94 93 93 95
98 97 97 99 100 97 98 100 100 99 97 96 97 98 96 95 94 94 94 95 96 97

GFSNIL_sfc_rhum_111.txt.gz
RH
69 78 80 80 86 87 85 91 94 95 95 94 92 94 95 96 96 96 96 96 95 94
83 83 76 75 82 85 85 88 95 95 96 94 90 92 94 94 96 96 96 96 95 94
87 79 81 76 79 83 85 84 93 95 96 96 94 94 94 94 93 96 97 96 94 92
84 81 91 79 75 79 84 87 87 92 96 96 94 94 96 96 94 96 96 96 95 92
94 92 91 85 85 84 88 91 91 91 94 95 94 96 96 98 97 98 98 98 98 98
96 95 90 88 82 86 87 93 92 92 91 97 96 97 96 95 96 95 94 95 96 95
97 96 90 88 87 90 88 93 90 90 91 93 94 95 95 95 96 94 93 93 93 93
93 97 96 90 90 90 90 90 88 92 92 92 91 89 94 94 96 96 96 96 94 93
90 91 97 93 92 89 89 89 91 94 92 87 78 96 98 97 95 94 94 96 94 90
89 92 94 92 95 97 94 93 96 92 87 88 87 97 96 98 92 93 94 93 94 88
90 92 92 92 93 95 94 95 94 94 92 92 90 97 97 100 92 92 93 94 94 94
92 93 94 96 97 95 94 95 95 93 93 94 96 97 100 94 92 93 94 93 94 92
94 97 98 97 99 98 97 100 95 97 96 96 97 97 95 92 92 95 95 95 95 96
98 99 98 98 99 100 100 99 98 97 96 96 98 99 98 93 94 95 95 95 96 98

GFSNIL_sfc_rhum_114.txt.gz
RH
81 90 85 90 89 91 91 90 96 96 95 96 95 94 94 94 95 97 97 96 95 95
85 90 86 87 90 89 90 91 96 95 96 97 95 93 95 95 95 97 97 96 95 94
85 84 88 88 92 92 91 90 97 96 96 96 94 94 94 93 93 97 98 96 96 95
86 86 89 88 88 90 92 91 95 96 96 96 91 95 96 94 93 97 96 96 95 95
98 96 92 90 89 90 90 89 92 95 94 94 94 96 95 97 96 96 98 97 96 94
95 98 98 96 92 91 91 91 91 96 96 91 95 94 95 96 97 96 95 94 97 95
94 95 98 97 95 94 92 91 90 94 96 96 96 96 96 96 97 96 96 96 96 96
89 89 93 97 96 93 92 91 89 93 96 97 97 96 98 96 97 97 97 96 95 94
88 88 92 93 96 94 93 92 94 95 96 93 85 98 99 100 98 98 98 98 98 95
88 90 91 90 92 94 96 96 95 93 90 91 90 97 97 99 97 98 98 98 98 98
90 91 91 91 93 96 95 96 96 95 93 94 92 98 98 100 93 94 94 95 95 96
93 96 93 98 96 95 96 96 97 94 94 96 97 98 100 95 94 95 97 94 95 94
98 98 99 99 99 99 99 99 97 96 96 97 97 98 96 94 93 97 97 97 97 98
96 97 98 98 99 100 100 100 100 97 96 97 98 99 98 96 97 98 96 97 98 98

GFSNIL_sfc_rhum_117.txt.gz
RH
86 93 89 79 87 92 93 93 92 93 94 96 97 95 94 96 96 97 98 96 97 95
95 91 94 92 92 90 91 91 96 93 96 97 97 94 95 96 97 98 96 96 96 96
91 89 92 94 95 94 93 92 96 94 95 98 96 94 94 96 95 96 96 97 97 95
92 93 93 94 94 92 95 96 96 93 93 96 97 96 96 95 95 96 96 98 97 96
91 92 95 96 94 96 96 95 95 95 97 96 94 95 96 96 94 95 95 96 98 96
91 93 95 96 97 96 96 96 96 96 96 94 95 94 93 94 94 93 93 95 97 95
91 92 93 94 98 97 96 96 97 96 97 94 94 92 93 94 96 95 94 95 94 93
87 87 88 92 93 96 97 96 95 97 98 96 94 96 96 97 98 98 98 97 96 95
86 86 89 89 90 89 93 95 97 97 98 99 94 99 100 99 98 97 98 98 98 96
87 88 90 88 88 92 94 93 94 96 95 96 93 98 98 100 98 98 98 98 98 99
90 89 89 90 94 94 95 96 98 97 96 96 92 98 99 100 99 98 97 98 97 99
95 94 91 96 97 97 95 97 99 97 97 96 97 97 97 96 96 97 98 96 97 96
93 95 96 97 98 99 100 100 99 100 99 100 99 97 96 93 93 96 96 97 96 98
92 94 95 96 97 97 98 98 99 98 96 96 98 98 98 95 96 98 97 96 97 98

GFSNIL_sfc_rhum_120.txt.gz
RH
87 94 93 90 96 95 96 95 94 94 93 92 95 97 97 98 96 97 97 97 97 96
88 92 93 91 95 92 91 83 82 92 92 92 95 96 98 97 98 97 97 97 97 96
87 85 92 94 94 96 94 95 95 94 92 93 94 96 97 97 96 96 97 97 97 96
87 88 91 94 86 95 97 96 96 93 92 96 96 98 98 96 96 96 97 97 96 96
88 88 91 92 94 97 97 96 96 96 94 95 98 97 97 97 95 95 97 96 97 96
89 89 91 92 92 94 97 97 97 96 95 94 96 97 95 93 94 95 95 95 96 95
89 88 89 89 90 92 94 97 98 96 94 95 96 94 95 95 95 96 94 92 92 94
86 85 86 89 88 89 91 91 90 96 96 96 97 97 96 94 95 94 95 94 94 94
83 83 87 88 88 88 88 89 91 93 96 96 94 99 100 97 95 96 97 98 97 96
84 86 86 86 89 91 93 91 92 92 92 94 95 98 100 100 98 98 97 98 98 98
87 86 86 87 90 93 92 94 96 95 94 93 92 97 99 100 99 99 98 98 99 99
90 90 89 92 95 93 93 95 96 95 96 97 97 97 97 95 96 97 97 95 96 97
92 93 95 95 95 96 96 95 91 92 94 92 98 98 98 95 94 97 96 94 95 98
88 92 93 92 92 93 94 92 93 94 96 95 96 97 96 98 96 99 97 96 97 98